Weather History for Price, UT

Change the Weather History Date:

Sunday, April 6, 2014

  Actual Average Record
Temperature  
Mean Temperature 46 °F -  
Max Temperature 55 °F 53 °F 73 °F (1992)
Min Temperature 37 °F 29 °F 19 °F (1997)
Degree Days  
Heating Degree Days 19    
Moisture  
Dew Point 23 °F    
Average Humidity 43    
Maximum Humidity 57    
Minimum Humidity 26    
Precipitation  
Precipitation 0.00 in - - ()
Sea Level Pressure  
Sea Level Pressure 30.04 in    
Wind  
Wind Speed 15 mph (NW)    
Max Wind Speed 26 mph    
Max Gust Speed 39 mph    
Visibility 10 miles    
Events      
Averages and records for this station are not official NWS values.
T = Trace of Precipitation, MM = Missing Value Source: NWS Daily Summary

Daily Weather History Graph

Daily Weather History Graph

Search for Another Location

Airport:

Trip Planner

Search our weather history database for the weather conditions in past years. The results will help you decide how hot, cold, wet, or windy it might be!

Date:

Astronomy

Apr. 06, 2014 Rise Set
Actual Time 6:59 AM MDT 7:52 PM MDT
Civil Twilight 6:31 AM MDT 8:19 PM MDT
Nautical Twilight 5:59 AM MDT 8:52 PM MDT
Astronomical Twilight 5:25 AM MDT 9:25 PM MDT
Moon 12:04 PM MDT (4/6) 1:50 AM MDT (4/6)
Length of Visible Light 13h 47m
Length of Day
12h 52m
Waxing Crescent, 44% of the Moon is Illuminated
Apr 6
Waxing Crescent
Apr 7
First Quarter
Apr 15
Full
Apr 22
Last Quarter
Apr 29
New

Hourly Weather History & Observations

Time (MDT) Temp. Windchill Dew Point Humidity Pressure Visibility Wind Dir Wind Speed Gust Speed Precip Events Conditions
12:53 AM 39.0 °F 31.4 °F 24.1 °F 55% 30.01 in 10.0 mi NW 12.7 mph - N/A   Clear
1:53 AM 37.9 °F 31.5 °F 24.1 °F 57% 30.02 in 10.0 mi NW 9.2 mph - N/A   Unknown
2:53 AM 37.9 °F 30.9 °F 24.1 °F 57% 30.02 in 10.0 mi NNW 10.4 mph - N/A   Unknown
3:53 AM 37.0 °F 30.4 °F 23.0 °F 57% 30.05 in 10.0 mi NNW 9.2 mph - N/A   Clear
4:53 AM 37.9 °F 30.5 °F 23.0 °F 55% 30.01 in 10.0 mi NNW 11.5 mph - N/A   Clear
5:53 AM 37.9 °F 27.9 °F 21.9 °F 53% 30.03 in 10.0 mi NNW 19.6 mph 26.5 mph N/A   Clear
6:53 AM 39.0 °F 30.6 °F 23.0 °F 53% 30.04 in 10.0 mi NNW 15.0 mph - N/A   Clear
7:53 AM 37.9 °F 28.9 °F 23.0 °F 55% 30.07 in 10.0 mi NW 16.1 mph 24.2 mph N/A   Clear
8:53 AM 43.0 °F 35.4 °F 21.9 °F 43% 30.07 in 10.0 mi NW 16.1 mph 20.7 mph N/A   Clear
9:53 AM 45.0 °F 37.1 °F 21.0 °F 39% 30.07 in 10.0 mi WNW 19.6 mph 27.6 mph N/A   Unknown
10:53 AM 48.0 °F - 19.0 °F 32% 30.07 in 10.0 mi WNW 15.0 mph 25.3 mph N/A   Mostly Cloudy
11:53 AM 48.9 °F - 19.9 °F 32% 30.06 in 10.0 mi NW 19.6 mph 27.6 mph N/A   Unknown
12:53 PM 50.0 °F - 19.0 °F 29% 30.04 in 10.0 mi NW 18.4 mph 29.9 mph N/A   Mostly Cloudy
1:53 PM 54.0 °F - 19.9 °F 26% 29.99 in 10.0 mi NW 21.9 mph 34.5 mph N/A   Clear
2:53 PM 55.0 °F - 21.0 °F 27% 30.01 in 10.0 mi NNW 20.7 mph 36.8 mph N/A   Partly Cloudy
3:53 PM 52.0 °F - 21.0 °F 30% 30.01 in 10.0 mi WNW 18.4 mph 31.1 mph N/A   Partly Cloudy
4:53 PM 52.0 °F - 21.9 °F 31% 30.01 in 10.0 mi NNW 15.0 mph 29.9 mph N/A   Unknown
5:53 PM 52.0 °F - 21.0 °F 30% 30.01 in 10.0 mi NW 20.7 mph 28.8 mph N/A   Partly Cloudy
6:53 PM 48.0 °F - 23.0 °F 37% 30.04 in 10.0 mi NNW 17.3 mph 32.2 mph N/A   Clear
7:53 PM 46.0 °F 37.2 °F 24.1 °F 42% 30.06 in 10.0 mi NNW 26.5 mph 36.8 mph N/A   Clear
8:53 PM 46.0 °F 37.8 °F 25.0 °F 44% 30.05 in 10.0 mi NW 23.0 mph 39.1 mph N/A   Clear
9:53 PM 45.0 °F 37.4 °F 25.0 °F 46% 30.06 in 10.0 mi NNW 18.4 mph 27.6 mph N/A   Unknown
10:53 PM 45.0 °F 36.2 °F 26.1 °F 48% 30.07 in 10.0 mi NNW 24.2 mph 32.2 mph N/A   Clear
11:53 PM 45.0 °F 36.6 °F 26.1 °F 48% 30.08 in 10.0 mi NW 21.9 mph 31.1 mph N/A   Unknown